Torna al catalogo

IPSTAR 1

AttivoComunicazioniGEO
NORAD 28786·PAYLOAD·🇹🇭 Thailand

Lanciato Aug 11, 2005 da Guiana Space Centre

Loading…

TLE

AggiornatoSource: Space-Track

Epoca: Sep 14, 2026, 14:22 UTC

1 28786U 05028A   26257.59876111 -.00000370  00000-0  00000-0 0  9997
2 28786   0.4707  84.6039 0000524  49.3584 194.6524  1.00270191 53140

Traccia IPSTAR 1 in tempo reale con AllMySat

Download on the App Store